[[{"header":{"parameterUnit":"m.s-1","parameterCategory":1,"la1":30.2991,"la2":30.254,"lo1":-89.0895,"lo2":-89.0444,"dy":0.0017,"dx":0.0017,"nx":28,"ny":28,"refTime":"2025-08-22T21:00:00:Z","depth":0,"parameterNumber":2,"parameterNumberName":"U-component_of_WINDS"},"data":[0,0,0,0,0,0,0,0,0,0,0,0,0,0,0,0,0,0,0,0,0,0,0,0,0,0,0,0,0,0,0,0,0,0,0,0,0,0,0,0,0,0,0,0,0,0,0,0,0,0,0,0,0,0,0,0,0,0,2.9195,2.9196,0,2.9271,2.9272,2.9273,2.9215,2.9212,2.921,2.9207,2.9286,2.929,2.9295,0,0,0,0,0,0,0,0,0,0,0,0,0,2.9,2.9004,2.9195,2.9196,2.9197,2.9271,2.9272,2.9273,2.9215,2.9212,2.9209,2.9206,2.9285,2.929,2.9295,0,0,0,0,0,0,0,0,0,0,0,0,0,2.9081,2.9005,2.9195,2.9177,2.9176,2.9271,2.9272,2.9273,2.9216,2.9212,2.9208,2.9205,2.9283,2.9289,2.9296,2.9413,0,0,2.9316,2.9319,0,0,0,0,0,0,0,0,2.9077,2.9089,2.9178,2.9178,2.9177,2.923,2.9232,2.932,2.9217,2.9201,2.9207,2.9203,2.927,2.9278,2.9301,2.9417,2.942,2.9317,2.9321,2.9324,2.9326,0,0,0,0,0,0,0,2.9071,2.9085,2.9225,2.918,2.9179,2.9165,2.9173,2.9249,2.9256,2.9202,2.9198,2.9208,2.9269,2.9294,2.9302,2.9421,2.9317,2.9323,2.9327,2.933,2.9638,2.9642,0,0,0,0,0,0,2.9067,2.9081,2.9223,2.9227,2.9117,2.9172,2.918,2.9217,2.9255,2.9257,2.9211,2.9205,2.9285,2.9294,2.9305,2.9444,2.9324,2.933,2.9334,2.9634,2.9639,2.9644,0,0,0,0,0,0,2.9063,2.908,2.9219,2.9153,2.917,2.9179,2.9221,2.922,2.9245,2.9262,2.9263,2.9235,2.9282,2.9295,2.9387,2.9446,2.9333,2.9339,2.9629,2.9636,2.9642,2.9725,0,0,0,0,0,0,2.9058,2.9079,2.9123,2.9154,2.9173,2.93,2.9224,2.9224,2.9256,2.9249,2.9284,2.9287,2.928,2.9377,2.9393,2.9453,2.9344,2.9624,2.9632,2.964,2.9717,2.9733,2.9747,0,0,0,0,0,2.9051,2.9144,2.9126,2.9143,2.9229,2.9304,2.9315,2.9305,2.9262,2.9306,2.9317,2.9285,2.9437,2.9387,2.9405,2.9468,2.962,2.963,2.9639,2.971,2.973,2.9747,0,0,0,0,0,0,2.9119,2.9147,2.9128,2.9233,2.9267,2.9294,2.935,2.9326,2.9373,2.9364,2.9351,2.9359,2.9455,2.9471,2.9414,2.9584,2.9522,2.9535,2.957,2.9589,2.9604,2.9598,2.935,0,0,0,0,0,2.9147,2.9205,2.9226,2.9317,2.9335,2.934,2.9372,2.9362,2.9396,2.941,2.9427,2.9462,2.9517,2.9554,2.9606,2.9719,2.9726,2.9772,2.9787,2.9799,2.9811,2.9872,2.9893,2.9675,2.9675,2.9675,0,0,2.9204,2.9226,2.9264,2.9332,2.9356,2.9417,2.9352,2.9419,2.9464,2.942,2.9507,2.9522,2.956,2.9663,2.9709,2.9678,2.9873,2.9811,2.9821,2.9826,2.9884,2.9905,2.9923,2.9681,2.968,2.9679,0,0,2.9338,2.9362,2.944,2.9466,2.9504,2.9507,2.9526,2.9557,2.9565,2.9653,2.9621,2.9675,2.9771,2.9799,2.9826,2.9974,2.9947,2.9991,3.0071,3.0131,3.0148,3.0163,3.0216,3.0235,3.0003,3.0003,3.0003,0,2.9404,2.9495,2.9483,2.9553,2.9584,2.9547,2.9627,2.9653,2.9707,2.9729,2.9695,2.9815,2.9837,2.9947,2.9983,3.0006,3.0028,2.9987,3.0147,3.0162,3.0176,3.0226,3.0246,3.0008,3.0008,3.0007,3.0007,0,2.9574,2.9638,2.9696,2.9749,2.9787,2.9862,2.9862,2.9902,2.9889,2.9896,2.9986,3.0013,3.0069,3.0095,3.0083,3.0203,3.0183,3.0148,3.0086,3.0202,3.0249,3.0268,3.0016,3.0014,3.0012,3.0011,0,0,2.9753,2.9799,2.9821,2.9845,2.9885,2.9934,3.0008,3.0063,3.0098,3.0137,3.0198,3.0281,3.0249,3.0279,3.0271,3.0324,3.0439,3.0282,3.0282,3.031,3.0574,3.06,3.0622,3.0422,3.0426,3.0429,3.0571,0,2.9889,3.0017,3.0009,3.0129,3.0188,3.0155,3.0219,3.0251,3.026,3.0311,3.0321,3.038,3.0333,3.0351,3.0402,3.0414,3.0492,3.0404,3.0479,3.0482,3.047,3.0647,3.0674,3.0807,3.0589,3.0592,3.0595,0,3.0065,3.011,3.0236,3.0269,3.0293,3.0351,3.0402,3.0451,3.0488,3.049,3.0526,3.0508,3.0583,3.052,3.0623,3.0564,3.0594,3.0605,3.061,3.0616,3.0545,3.0657,3.0849,3.0869,3.0623,3.0621,3.0619,0,3.0183,3.0275,3.0362,3.0384,3.0424,3.0465,3.0484,3.0516,3.0551,3.0596,3.0618,3.0671,3.0701,3.0743,3.0741,3.0695,3.0846,3.0782,3.085,3.0851,3.0883,3.0881,3.1082,3.0904,3.0903,3.0903,3.0903,0,3.0336,3.0414,3.0416,3.0469,3.0557,3.0548,3.0634,3.0649,3.0678,3.0735,3.071,3.0763,3.0757,3.0812,3.0811,3.0897,3.091,3.0915,3.0913,3.0917,3.0916,3.0936,3.0926,3.0908,3.0907,3.0906,3.0905,0,3.0481,3.0486,3.0579,3.0609,3.0619,3.0682,3.0708,3.076,3.0767,3.0838,3.0855,3.0866,3.0929,3.0931,3.1003,3.1003,3.1108,3.1096,3.1095,3.1093,3.1161,3.1154,3.1381,3.1411,3.1214,3.1216,3.1218,0,3.0578,3.0638,3.0675,3.0711,3.0733,3.0791,3.0826,3.082,3.0858,3.0905,3.0951,3.1011,3.1058,3.116,3.1175,3.1231,3.122,3.1296,3.1228,3.123,3.1221,3.1217,3.1223,3.1309,3.1311,3.1313,3.1314,0,3.075,3.075,3.0801,3.0854,3.0897,3.0938,3.0977,3.1008,3.1007,3.1051,3.1114,3.1152,3.1226,3.1286,3.134,3.136,3.1338,3.1336,3.1354,3.1358,3.1355,3.1357,3.1131,3.133,3.1329,3.1328,3.1327,3.1326,3.0874,3.0926,3.096,3.1019,3.1048,3.1084,3.1134,3.1148,3.1201,3.126,3.1254,3.1325,3.1361,3.1431,3.1456,3.1512,3.1486,3.1513,3.1519,3.1526,3.1533,3.1347,3.1522,3.1521,3.1521,3.152,3.152,0,3.1044,3.1065,3.1119,3.1174,3.1221,3.1196,3.1238,3.1278,3.1341,3.1376,3.1424,3.1498,3.1557,3.1577,3.1634,3.1675,3.1667,3.169,3.1687,3.1692,3.1553,3.1531,3.1697,3.1697,3.1697,3.1696,3.1696,3.1696,3.1138,3.1224,3.1228,3.1329,3.1349,3.1419,3.1445,3.1479,3.1507,3.159,3.1639,3.1652,3.1682,3.1741,3.1794,3.1799,3.1821,3.1849,3.185,3.1719,3.1702,3.1685,3.1664,3.1854,3.1854,3.1983,3.1984,3.1985]},{"header":{"parameterUnit":"m.s-1","parameterCategory":1,"la1":30.2991,"la2":30.254,"lo1":-89.0895,"lo2":-89.0444,"dy":0.0017,"dx":0.0017,"nx":28,"ny":28,"refTime":"2025-08-22T21:00:00:Z","depth":0,"parameterNumber":3,"parameterNumberName":"V-component_of_WINDS"},"data":[0,0,0,0,0,0,0,0,0,0,0,0,0,0,0,0,0,0,0,0,0,0,0,0,0,0,0,0,0,0,0,0,0,0,0,0,0,0,0,0,0,0,0,0,0,0,0,0,0,0,0,0,0,0,0,0,0,0,-2.4928,-2.4928,0,-2.5003,-2.5004,-2.5004,-2.4992,-2.4991,-2.499,-2.4988,-2.5063,-2.5066,-2.5069,0,0,0,0,0,0,0,0,0,0,0,0,0,-2.4771,-2.4774,-2.4927,-2.4928,-2.4929,-2.5003,-2.5004,-2.5005,-2.4992,-2.4991,-2.4989,-2.4988,-2.5062,-2.5066,-2.507,0,0,0,0,0,0,0,0,0,0,0,0,0,-2.4842,-2.4775,-2.4927,-2.4932,-2.4933,-2.5002,-2.5004,-2.5005,-2.4993,-2.4991,-2.4989,-2.4987,-2.5061,-2.5065,-2.507,-2.5138,0,0,-2.5085,-2.5087,0,0,0,0,0,0,0,0,-2.4838,-2.4847,-2.493,-2.4932,-2.4933,-2.4986,-2.4976,-2.505,-2.4993,-2.497,-2.4988,-2.4986,-2.5039,-2.5045,-2.5064,-2.5142,-2.5145,-2.5085,-2.5088,-2.509,-2.5091,0,0,0,0,0,0,0,-2.4833,-2.4844,-2.4957,-2.4932,-2.4933,-2.493,-2.4938,-2.499,-2.5014,-2.4972,-2.4971,-2.498,-2.5039,-2.5059,-2.5065,-2.5146,-2.5085,-2.5089,-2.5092,-2.5094,-2.5284,-2.5286,0,0,0,0,0,0,-2.4827,-2.484,-2.4955,-2.4959,-2.488,-2.4934,-2.4943,-2.4971,-2.5014,-2.5018,-2.4982,-2.498,-2.5052,-2.506,-2.5068,-2.515,-2.509,-2.5095,-2.5097,-2.5282,-2.5284,-2.5287,0,0,0,0,0,0,-2.4824,-2.4837,-2.4952,-2.49,-2.4914,-2.4939,-2.4971,-2.4974,-2.4993,-2.5021,-2.5025,-2.4998,-2.5051,-2.5061,-2.5121,-2.5153,-2.5097,-2.5101,-2.5279,-2.5283,-2.5286,-2.5316,0,0,0,0,0,0,-2.4819,-2.4836,-2.4863,-2.49,-2.4917,-2.5005,-2.4973,-2.4976,-2.5002,-2.4999,-2.5037,-2.5042,-2.505,-2.5114,-2.5126,-2.5158,-2.5105,-2.5276,-2.5281,-2.5284,-2.5312,-2.532,-2.5327,0,0,0,0,0,-2.4814,-2.4868,-2.4864,-2.4878,-2.4951,-2.5006,-2.5016,-2.5025,-2.5005,-2.5031,-2.5049,-2.5041,-2.5148,-2.512,-2.5133,-2.5168,-2.5274,-2.5279,-2.5284,-2.5309,-2.5319,-2.5326,0,0,0,0,0,0,-2.4833,-2.4873,-2.4869,-2.4938,-2.4969,-2.5004,-2.5038,-2.5034,-2.5071,-2.5067,-2.5076,-2.5085,-2.5145,-2.5163,-2.5131,-2.5236,-2.5208,-2.5216,-2.5223,-2.5232,-2.5239,-2.5233,-2.5109,0,0,0,0,0,-2.4845,-2.4888,-2.492,-2.4978,-2.4993,-2.5013,-2.5038,-2.5042,-2.5074,-2.5087,-2.5109,-2.514,-2.5181,-2.5207,-2.5246,-2.5315,-2.5323,-2.5345,-2.5352,-2.5358,-2.5364,-2.5401,-2.5412,-2.5303,-2.5303,-2.5303,0,0,-2.4871,-2.4898,-2.4924,-2.4982,-2.5007,-2.505,-2.5024,-2.5071,-2.5103,-2.5094,-2.5152,-2.5169,-2.5204,-2.5269,-2.5299,-2.5285,-2.5396,-2.5364,-2.5368,-2.5372,-2.5407,-2.5418,-2.5427,-2.5306,-2.5305,-2.5305,0,0,-2.494,-2.4965,-2.5016,-2.5041,-2.5079,-2.5091,-2.5103,-2.514,-2.5151,-2.521,-2.5204,-2.5241,-2.5311,-2.5336,-2.5358,-2.5436,-2.5429,-2.5449,-2.5485,-2.5521,-2.553,-2.5538,-2.5565,-2.5575,-2.5455,-2.5455,-2.5455,0,-2.4967,-2.5033,-2.5042,-2.5089,-2.5114,-2.5109,-2.516,-2.5183,-2.5231,-2.5249,-2.5233,-2.5321,-2.5344,-2.5414,-2.5433,-2.5451,-2.5465,-2.5444,-2.5528,-2.5536,-2.5543,-2.5569,-2.558,-2.5457,-2.5457,-2.5457,-2.5456,0,-2.5064,-2.5109,-2.5145,-2.5192,-2.5222,-2.527,-2.5286,-2.5314,-2.5316,-2.533,-2.539,-2.5417,-2.5462,-2.5479,-2.548,-2.5549,-2.554,-2.5526,-2.5498,-2.5556,-2.558,-2.559,-2.546,-2.5459,-2.5459,-2.5458,0,0,-2.5147,-2.5199,-2.5212,-2.5233,-2.5274,-2.5309,-2.5357,-2.5401,-2.5425,-2.5458,-2.5498,-2.5557,-2.5545,-2.557,-2.5575,-2.5607,-2.5666,-2.5589,-2.559,-2.5602,-2.5743,-2.5752,-2.5764,-2.5662,-2.5664,-2.5666,-2.574,0,-2.522,-2.5305,-2.5315,-2.5391,-2.5433,-2.5428,-2.547,-2.5499,-2.5514,-2.555,-2.5566,-2.5607,-2.5589,-2.5604,-2.5635,-2.5652,-2.5694,-2.5647,-2.5698,-2.57,-2.569,-2.5777,-2.5787,-2.5856,-2.5749,-2.5751,-2.5752,0,-2.5316,-2.5352,-2.5433,-2.5468,-2.5486,-2.5523,-2.5564,-2.5599,-2.5632,-2.564,-2.5668,-2.5669,-2.5717,-2.5688,-2.5755,-2.5722,-2.5744,-2.5755,-2.5758,-2.5763,-2.573,-2.5784,-2.5878,-2.5888,-2.5768,-2.5767,-2.5765,0,-2.5368,-2.5437,-2.5494,-2.5513,-2.5555,-2.5582,-2.56,-2.5631,-2.5657,-2.5692,-2.5709,-2.5749,-2.5771,-2.5802,-2.5813,-2.5791,-2.5879,-2.5851,-2.5887,-2.5887,-2.5905,-2.5904,-2.6004,-2.592,-2.592,-2.592,-2.5919,0,-2.5448,-2.5497,-2.5518,-2.5553,-2.5608,-2.5618,-2.5672,-2.5689,-2.5717,-2.5755,-2.5753,-2.5788,-2.5801,-2.5838,-2.5847,-2.59,-2.591,-2.5918,-2.5919,-2.5918,-2.5917,-2.5932,-2.5927,-2.5922,-2.5922,-2.5921,-2.5921,0,-2.5515,-2.5532,-2.5593,-2.5629,-2.5639,-2.5677,-2.5707,-2.5741,-2.5754,-2.5802,-2.5814,-2.5836,-2.5879,-2.5893,-2.5946,-2.5952,-2.6014,-2.6012,-2.6003,-2.6003,-2.6039,-2.6035,-2.6152,-2.6167,-2.6073,-2.6074,-2.6075,0,-2.5565,-2.5603,-2.5642,-2.5668,-2.5688,-2.5729,-2.5755,-2.5766,-2.5793,-2.5834,-2.5862,-2.5905,-2.5941,-2.601,-2.603,-2.607,-2.6069,-2.6107,-2.6075,-2.6072,-2.6069,-2.6066,-2.607,-2.6113,-2.6114,-2.6115,-2.6115,0,-2.5652,-2.5658,-2.5696,-2.5737,-2.5769,-2.5802,-2.5833,-2.5854,-2.587,-2.59,-2.5945,-2.5973,-2.6027,-2.6069,-2.611,-2.6128,-2.6124,-2.6125,-2.6136,-2.6134,-2.6128,-2.6131,-2.6019,-2.6122,-2.6122,-2.6121,-2.6121,-2.612,-2.5712,-2.5745,-2.5778,-2.582,-2.5845,-2.5875,-2.5908,-2.5926,-2.5964,-2.6009,-2.6013,-2.6062,-2.6093,-2.6147,-2.6168,-2.6205,-2.6194,-2.6209,-2.6213,-2.6217,-2.6219,-2.6122,-2.6212,-2.6212,-2.6212,-2.6212,-2.6212,0,-2.5798,-2.5818,-2.5858,-2.5902,-2.5935,-2.5929,-2.5964,-2.5992,-2.6035,-2.6065,-2.61,-2.6151,-2.6192,-2.6216,-2.6257,-2.6282,-2.6281,-2.6293,-2.6291,-2.6295,-2.6227,-2.6214,-2.6293,-2.6293,-2.6293,-2.6293,-2.6293,-2.6293,-2.5846,-2.5902,-2.5912,-2.598,-2.6,-2.6048,-2.6069,-2.6095,-2.6119,-2.6177,-2.6212,-2.6227,-2.6254,-2.6297,-2.6334,-2.634,-2.6355,-2.6368,-2.6372,-2.6308,-2.63,-2.6292,-2.6279,-2.6371,-2.6371,-2.6437,-2.6437,-2.6438]}]]